QPF
0.00 0.00 0.00 0.00 0.00 0.01 0.01 0.01 0.01 0.03 0.03 0.04 0.06 0.07 0.06 0.03 0.03 0.03 0.03 0.02 0.03 0.03 0.04 0.05 0.05 0.04 0.04 0.05 0.05 0.05 0.05 0.05 0.05 0.03 0.03 0.03 0.04 0.04 0.04 0.04 0.04 0.04 0.05
0.00 0.00 0.00 0.00 0.00 0.00 0.01 0.00 0.01 0.03 0.03 0.03 0.04 0.05 0.05 0.04 0.02 0.02 0.02 0.02 0.01 0.01 0.02 0.02 0.02 0.02 0.03 0.03 0.03 0.04 0.04 0.04 0.05 0.04 0.04 0.04 0.04 0.04 0.04 0.04 0.04 0.03 0.03
0.00 0.00 0.00 0.00 0.00 0.00 0.01 0.01 0.01 0.02 0.02 0.03 0.03 0.03 0.03 0.04 0.03 0.01 0.01 0.01 0.01 0.01 0.01 0.01 0.01 0.01 0.01 0.01 0.02 0.02 0.03 0.03 0.03 0.04 0.03 0.03 0.03 0.04 0.04 0.04 0.03 0.03 0.03
0.00 0.00 0.00 0.00 0.00 0.00 0.01 0.01 0.02 0.02 0.02 0.03 0.03 0.03 0.03 0.03 0.04 0.02 0.01 0.01 0.01 0.01 0.01 0.01 0.01 0.01 0.01 0.01 0.01 0.01 0.02 0.02 0.02 0.03 0.03 0.02 0.02 0.02 0.03 0.03 0.03 0.02 0.02
0.01 0.01 0.01 0.00 0.00 0.01 0.01 0.02 0.02 0.01 0.01 0.01 0.02 0.02 0.02 0.03 0.03 0.03 0.02 0.01 0.00 0.00 0.00 0.00 0.00 0.00 0.01 0.01 0.01 0.01 0.02 0.02 0.02 0.02 0.02 0.02 0.02 0.02 0.02 0.02 0.02 0.01 0.01
0.00 0.01 0.01 0.01 0.01 0.01 0.01 0.01 0.01 0.01 0.00 0.01 0.01 0.01 0.02 0.02 0.03 0.03 0.03 0.02 0.01 0.01 0.00 0.00 0.00 0.00 0.01 0.01 0.01 0.01 0.02 0.02 0.02 0.02 0.02 0.02 0.02 0.02 0.02 0.02 0.02 0.02 0.02
0.01 0.00 0.01 0.01 0.01 0.01 0.01 0.00 0.01 0.01 0.00 0.00 0.00 0.01 0.01 0.01 0.02 0.03 0.03 0.03 0.02 0.01 0.01 0.01 0.00 0.00 0.01 0.01 0.01 0.01 0.01 0.01 0.02 0.02 0.02 0.02 0.02 0.01 0.02 0.02 0.02 0.02 0.01
0.00 0.00 0.00 0.01 0.00 0.00 0.01 0.00 0.00 0.00 0.00 0.01 0.01 0.01 0.01 0.01 0.01 0.02 0.03 0.03 0.02 0.01 0.01 0.01 0.00 0.00 0.01 0.01 0.01 0.01 0.01 0.01 0.01 0.01 0.01 0.01 0.02 0.01 0.02 0.03 0.02 0.02 0.02
0.00 0.00 0.00 0.00 0.00 0.00 0.00 0.00 0.00 0.00 0.00 0.01 0.01 0.01 0.01 0.01 0.01 0.02 0.03 0.02 0.02 0.02 0.01 0.01 0.01 0.00 0.01 0.01 0.01 0.01 0.01 0.01 0.01 0.01 0.01 0.01 0.01 0.01 0.02 0.03 0.03 0.03 0.03
0.00 0.00 0.00 0.00 0.00 0.00 0.00 0.00 0.00 0.00 0.01 0.01 0.01 0.01 0.01 0.00 0.01 0.01 0.02 0.03 0.02 0.02 0.01 0.01 0.01 0.01 0.01 0.01 0.02 0.01 0.01 0.01 0.01 0.01 0.01 0.01 0.01 0.01 0.02 0.02 0.03 0.04 0.03
0.00 0.00 0.00 0.00 0.00 0.00 0.00 0.00 0.00 0.01 0.01 0.01 0.01 0.01 0.00 0.00 0.00 0.01 0.02 0.02 0.03 0.02 0.01 0.01 0.01 0.01 0.01 0.02 0.02 0.01 0.02 0.02 0.02 0.02 0.02 0.01 0.01 0.01 0.01 0.02 0.02 0.03 0.03
0.00 0.00 0.00 0.00 0.00 0.00 0.00 0.00 0.00 0.00 0.01 0.01 0.01 0.01 0.01 0.00 0.00 0.01 0.01 0.02 0.02 0.02 0.02 0.01 0.01 0.02 0.02 0.01 0.01 0.01 0.02 0.02 0.02 0.02 0.02 0.02 0.01 0.01 0.01 0.01 0.02 0.02 0.02
0.00 0.00 0.00 0.00 0.00 0.00 0.00 0.00 0.00 0.01 0.01 0.01 0.01 0.01 0.01 0.01 0.01 0.01 0.01 0.01 0.02 0.02 0.02 0.02 0.02 0.02 0.02 0.02 0.01 0.01 0.01 0.01 0.01 0.02 0.02 0.01 0.01 0.01 0.01 0.02 0.02 0.02 0.01
0.00 0.00 0.00 0.00 0.00 0.00 0.00 0.00 0.00 0.01 0.01 0.01 0.01 0.01 0.01 0.01 0.01 0.02 0.02 0.02 0.02 0.02 0.02 0.03 0.02 0.02 0.02 0.02 0.02 0.02 0.01 0.01 0.02 0.01 0.01 0.01 0.02 0.02 0.02 0.02 0.02 0.02 0.02
0.00 0.00 0.00 0.00 0.00 0.00 0.00 0.00 0.00 0.00 0.00 0.01 0.01 0.01 0.02 0.02 0.02 0.03 0.04 0.03 0.03 0.02 0.02 0.02 0.03 0.03 0.02 0.02 0.02 0.02 0.02 0.01 0.01 0.01 0.02 0.02 0.02 0.02 0.02 0.02 0.02 0.02 0.02
0.00 0.00 0.00 0.00 0.00 0.00 0.00 0.00 0.00 0.00 0.00 0.01 0.01 0.01 0.01 0.02 0.02 0.02 0.02 0.02 0.02 0.02 0.02 0.02 0.02 0.03 0.02 0.02 0.02 0.02 0.02 0.02 0.02 0.01 0.02 0.02 0.02 0.02 0.02 0.02 0.02 0.02 0.02
0.00 0.00 0.00 0.00 0.00 0.00 0.00 0.00 0.00 0.00 0.00 0.00 0.00 0.01 0.01 0.01 0.02 0.02 0.02 0.02 0.02 0.01 0.01 0.01 0.02 0.02 0.02 0.01 0.01 0.02 0.02 0.02 0.02 0.02 0.02 0.02 0.02 0.02 0.02 0.03 0.03 0.03 0.03
0.00 0.00 0.00 0.00 0.00 0.00 0.00 0.00 0.00 0.00 0.00 0.00 0.00 0.00 0.01 0.01 0.01 0.02 0.02 0.02 0.02 0.01 0.01 0.01 0.02 0.02 0.02 0.02 0.02 0.02 0.02 0.02 0.02 0.02 0.02 0.02 0.02 0.03 0.03 0.03 0.03 0.03 0.03
0.00 0.00 0.00 0.00 0.00 0.00 0.00 0.01 0.01 0.00 0.00 0.00 0.00 0.00 0.01 0.01 0.02 0.02 0.02 0.02 0.02 0.02 0.01 0.01 0.02 0.02 0.02 0.02 0.02 0.02 0.02 0.02 0.02 0.02 0.02 0.02 0.02 0.02 0.03 0.02 0.03 0.03 0.03
0.01 0.00 0.01 0.01 0.01 0.01 0.01 0.01 0.01 0.01 0.01 0.01 0.01 0.01 0.01 0.02 0.03 0.03 0.03 0.02 0.02 0.02 0.01 0.01 0.02 0.02 0.02 0.02 0.02 0.02 0.02 0.02 0.02 0.01 0.01 0.01 0.01 0.02 0.02 0.02 0.03 0.03 0.02
0.01 0.01 0.01 0.01 0.01 0.01 0.01 0.01 0.01 0.01 0.01 0.01 0.01 0.01 0.02 0.03 0.03 0.03 0.03 0.02 0.02 0.02 0.01 0.01 0.01 0.02 0.02 0.02 0.02 0.02 0.02 0.02 0.02 0.02 0.01 0.01 0.02 0.02 0.02 0.02 0.02 0.02 0.02
0.01 0.01 0.01 0.01 0.02 0.02 0.02 0.02 0.01 0.01 0.01 0.01 0.01 0.01 0.01 0.02 0.02 0.02 0.02 0.02 0.02 0.02 0.01 0.02 0.02 0.01 0.01 0.02 0.02 0.02 0.02 0.02 0.02 0.02 0.02 0.02 0.02 0.03 0.03 0.03 0.03 0.02 0.02
0.01 0.01 0.01 0.01 0.01 0.02 0.02 0.02 0.02 0.02 0.02 0.02 0.02 0.02 0.02 0.02 0.01 0.02 0.02 0.02 0.02 0.02 0.01 0.02 0.02 0.02 0.02 0.02 0.02 0.03 0.03 0.02 0.02 0.02 0.02 0.02 0.03 0.03 0.03 0.03 0.02 0.02 0.02
0.02 0.01 0.02 0.02 0.02 0.02 0.02 0.03 0.02 0.02 0.02 0.02 0.02 0.02 0.02 0.01 0.01 0.01 0.01 0.01 0.02 0.02 0.01 0.01 0.02 0.02 0.02 0.02 0.02 0.02 0.02 0.02 0.03 0.03 0.03 0.03 0.03 0.02 0.02 0.02 0.02 0.02 0.02
0.02 0.02 0.02 0.02 0.02 0.02 0.02 0.03 0.03 0.03 0.02 0.02 0.02 0.02 0.01 0.01 0.01 0.01 0.01 0.01 0.01 0.01 0.01 0.01 0.02 0.02 0.02 0.02 0.02 0.02 0.02 0.02 0.03 0.03 0.04 0.03 0.02 0.02 0.02 0.02 0.02 0.02 0.02
0.01 0.01 0.01 0.01 0.02 0.02 0.02 0.03 0.03 0.03 0.03 0.02 0.02 0.02 0.01 0.01 0.01 0.01 0.01 0.01 0.01 0.02 0.01 0.01 0.02 0.01 0.01 0.01 0.01 0.01 0.02 0.02 0.02 0.02 0.03 0.03 0.03 0.02 0.02 0.02 0.02 0.02 0.02
MSLP
1007.01 1007.00 1007.07 1007.21 1007.40 1007.64 1007.91 1008.22 1008.55 1008.90 1009.25 1009.61 1009.94 1010.24 1010.50 1010.72 1010.89 1011.03 1011.17 1011.31 1011.47 1011.68 1011.93 1012.22 1012.53 1012.87 1013.19 1013.47 1013.71 1013.87 1013.97 1014.00 1013.97 1013.90 1013.80 1013.71 1013.61 1013.53 1013.47 1013.41 1013.36 1013.29 1013.20
1007.15 1007.19 1007.30 1007.47 1007.67 1007.92 1008.18 1008.47 1008.78 1009.09 1009.40 1009.71 1009.99 1010.25 1010.47 1010.65 1010.81 1010.94 1011.07 1011.20 1011.37 1011.57 1011.81 1012.09 1012.40 1012.72 1013.04 1013.33 1013.56 1013.74 1013.85 1013.89 1013.87 1013.81 1013.71 1013.59 1013.47 1013.35 1013.24 1013.14 1013.03 1012.91 1012.79
1007.34 1007.45 1007.62 1007.83 1008.07 1008.32 1008.59 1008.87 1009.14 1009.42 1009.68 1009.93 1010.17 1010.38 1010.57 1010.73 1010.88 1011.01 1011.14 1011.28 1011.44 1011.63 1011.86 1012.11 1012.39 1012.68 1012.96 1013.21 1013.43 1013.59 1013.69 1013.74 1013.72 1013.66 1013.56 1013.44 1013.30 1013.16 1013.01 1012.86 1012.71 1012.54 1012.37
1007.48 1007.67 1007.91 1008.18 1008.46 1008.75 1009.04 1009.31 1009.57 1009.81 1010.04 1010.25 1010.44 1010.62 1010.78 1010.92 1011.06 1011.20 1011.33 1011.48 1011.64 1011.82 1012.02 1012.23 1012.46 1012.69 1012.91 1013.11 1013.27 1013.40 1013.48 1013.52 1013.50 1013.45 1013.36 1013.24 1013.09 1012.94 1012.77 1012.58 1012.39 1012.19 1011.97
1007.49 1007.76 1008.07 1008.42 1008.76 1009.11 1009.43 1009.72 1009.99 1010.22 1010.43 1010.61 1010.77 1010.92 1011.06 1011.19 1011.33 1011.46 1011.60 1011.75 1011.90 1012.06 1012.22 1012.38 1012.54 1012.70 1012.84 1012.97 1013.07 1013.15 1013.20 1013.22 1013.20 1013.15 1013.08 1012.97 1012.84 1012.68 1012.50 1012.30 1012.08 1011.85 1011.60
1007.33 1007.67 1008.07 1008.49 1008.91 1009.33 1009.71 1010.05 1010.34 1010.59 1010.80 1010.98 1011.12 1011.25 1011.38 1011.50 1011.63 1011.76 1011.89 1012.02 1012.16 1012.28 1012.40 1012.50 1012.59 1012.66 1012.72 1012.77 1012.80 1012.83 1012.84 1012.84 1012.82 1012.78 1012.71 1012.63 1012.51 1012.36 1012.19 1011.99 1011.75 1011.50 1011.23
1007.01 1007.42 1007.88 1008.39 1008.90 1009.40 1009.86 1010.27 1010.62 1010.91 1011.14 1011.33 1011.47 1011.59 1011.70 1011.80 1011.91 1012.02 1012.13 1012.24 1012.34 1012.42 1012.49 1012.53 1012.54 1012.54 1012.53 1012.50 1012.47 1012.45 1012.42 1012.39 1012.36 1012.33 1012.28 1012.21 1012.11 1011.98 1011.82 1011.61 1011.38 1011.11 1010.83
1006.60 1007.05 1007.58 1008.16 1008.76 1009.35 1009.90 1010.40 1010.82 1011.16 1011.43 1011.63 1011.78 1011.89 1011.98 1012.05 1012.13 1012.21 1012.28 1012.35 1012.41 1012.45 1012.46 1012.44 1012.40 1012.34 1012.26 1012.18 1012.10 1012.03 1011.97 1011.92 1011.88 1011.84 1011.79 1011.72 1011.64 1011.52 1011.36 1011.17 1010.93 1010.67 1010.37
1006.17 1006.65 1007.23 1007.88 1008.56 1009.23 1009.87 1010.45 1010.94 1011.34 1011.65 1011.87 1012.02 1012.12 1012.18 1012.22 1012.25 1012.28 1012.31 1012.34 1012.35 1012.34 1012.32 1012.26 1012.18 1012.07 1011.96 1011.84 1011.72 1011.62 1011.53 1011.46 1011.40 1011.34 1011.28 1011.21 1011.12 1011.00 1010.84 1010.64 1010.41 1010.14 1009.84
1005.82 1006.32 1006.93 1007.63 1008.36 1009.10 1009.81 1010.45 1011.00 1011.44 1011.78 1012.02 1012.16 1012.24 1012.28 1012.28 1012.26 1012.25 1012.23 1012.21 1012.18 1012.14 1012.08 1012.00 1011.90 1011.79 1011.66 1011.52 1011.39 1011.27 1011.16 1011.06 1010.97 1010.89 1010.80 1010.71 1010.59 1010.45 1010.28 1010.07 1009.83 1009.56 1009.26
1005.62 1006.12 1006.75 1007.47 1008.23 1009.00 1009.74 1010.41 1010.99 1011.46 1011.82 1012.06 1012.20 1012.25 1012.26 1012.22 1012.17 1012.11 1012.05 1011.99 1011.94 1011.88 1011.81 1011.73 1011.64 1011.53 1011.41 1011.28 1011.15 1011.02 1010.89 1010.77 1010.65 1010.53 1010.40 1010.26 1010.11 1009.93 1009.73 1009.50 1009.24 1008.96 1008.65
1005.59 1006.09 1006.71 1007.42 1008.18 1008.95 1009.69 1010.36 1010.93 1011.40 1011.75 1011.98 1012.11 1012.15 1012.13 1012.07 1011.99 1011.90 1011.82 1011.75 1011.68 1011.62 1011.57 1011.50 1011.43 1011.35 1011.26 1011.15 1011.03 1010.89 1010.76 1010.61 1010.45 1010.28 1010.11 1009.92 1009.71 1009.49 1009.24 1008.98 1008.70 1008.39 1008.07
1005.74 1006.22 1006.82 1007.49 1008.21 1008.94 1009.64 1010.28 1010.82 1011.27 1011.60 1011.82 1011.94 1011.97 1011.94 1011.88 1011.79 1011.69 1011.60 1011.53 1011.47 1011.43 1011.39 1011.35 1011.32 1011.27 1011.20 1011.12 1011.02 1010.89 1010.75 1010.57 1010.38 1010.17 1009.94 1009.69 1009.43 1009.15 1008.86 1008.56 1008.24 1007.91 1007.57
1006.03 1006.48 1007.03 1007.65 1008.30 1008.96 1009.59 1010.17 1010.67 1011.08 1011.39 1011.59 1011.71 1011.75 1011.73 1011.68 1011.60 1011.52 1011.44 1011.39 1011.34 1011.32 1011.31 1011.30 1011.30 1011.28 1011.25 1011.19 1011.10 1010.98 1010.82 1010.63 1010.41 1010.16 1009.88 1009.57 1009.26 1008.93 1008.59 1008.25 1007.89 1007.53 1007.15
1006.40 1006.81 1007.31 1007.85 1008.42 1009.00 1009.55 1010.06 1010.51 1010.87 1011.16 1011.36 1011.49 1011.55 1011.56 1011.53 1011.48 1011.43 1011.38 1011.34 1011.32 1011.32 1011.32 1011.34 1011.35 1011.35 1011.33 1011.29 1011.21 1011.09 1010.93 1010.72 1010.48 1010.19 1009.87 1009.53 1009.17 1008.80 1008.42 1008.03 1007.64 1007.24 1006.82
1006.80 1007.17 1007.60 1008.07 1008.56 1009.05 1009.52 1009.96 1010.36 1010.69 1010.96 1011.17 1011.32 1011.41 1011.45 1011.47 1011.46 1011.44 1011.41 1011.40 1011.38 1011.38 1011.39 1011.41 1011.42 1011.43 1011.41 1011.37 1011.29 1011.17 1011.00 1010.78 1010.51 1010.20 1009.86 1009.49 1009.10 1008.69 1008.28 1007.86 1007.43 1006.98 1006.52
1007.19 1007.52 1007.88 1008.28 1008.70 1009.11 1009.52 1009.91 1010.26 1010.57 1010.84 1011.06 1011.23 1011.35 1011.44 1011.49 1011.52 1011.52 1011.51 1011.50 1011.48 1011.47 1011.46 1011.46 1011.45 1011.44 1011.41 1011.35 1011.26 1011.13 1010.96 1010.73 1010.45 1010.13 1009.78 1009.39 1008.98 1008.55 1008.10 1007.64 1007.17 1006.68 1006.16
1007.55 1007.83 1008.15 1008.49 1008.85 1009.21 1009.57 1009.91 1010.23 1010.53 1010.80 1011.03 1011.22 1011.37 1011.49 1011.57 1011.61 1011.63 1011.62 1011.59 1011.56 1011.52 1011.47 1011.43 1011.39 1011.34 1011.28 1011.21 1011.10 1010.96 1010.77 1010.54 1010.26 1009.93 1009.57 1009.17 1008.74 1008.29 1007.82 1007.32 1006.81 1006.27 1005.69
1007.87 1008.12 1008.40 1008.70 1009.02 1009.34 1009.67 1009.98 1010.28 1010.57 1010.83 1011.06 1011.27 1011.43 1011.56 1011.64 1011.69 1011.70 1011.67 1011.62 1011.55 1011.47 1011.38 1011.29 1011.20 1011.12 1011.02 1010.92 1010.79 1010.64 1010.44 1010.20 1009.92 1009.59 1009.22 1008.80 1008.36 1007.88 1007.37 1006.84 1006.28 1005.68 1005.05
1008.15 1008.39 1008.65 1008.93 1009.22 1009.52 1009.82 1010.11 1010.39 1010.66 1010.90 1011.12 1011.32 1011.47 1011.58 1011.65 1011.68 1011.66 1011.61 1011.52 1011.41 1011.28 1011.15 1011.02 1010.89 1010.77 1010.64 1010.51 1010.37 1010.20 1009.99 1009.75 1009.46 1009.11 1008.73 1008.29 1007.82 1007.31 1006.76 1006.18 1005.56 1004.91 1004.22
1008.42 1008.64 1008.90 1009.17 1009.45 1009.73 1010.00 1010.27 1010.52 1010.76 1010.97 1011.16 1011.31 1011.43 1011.52 1011.55 1011.55 1011.49 1011.40 1011.28 1011.13 1010.97 1010.80 1010.64 1010.48 1010.33 1010.18 1010.03 1009.87 1009.69 1009.47 1009.21 1008.90 1008.54 1008.13 1007.66 1007.14 1006.58 1005.98 1005.35 1004.68 1003.97 1003.22
1008.66 1008.90 1009.15 1009.42 1009.68 1009.95 1010.19 1010.42 1010.63 1010.82 1010.98 1011.12 1011.22 1011.29 1011.32 1011.32 1011.27 1011.19 1011.06 1010.91 1010.74 1010.55 1010.37 1010.19 1010.02 1009.85 1009.69 1009.53 1009.36 1009.16 1008.92 1008.64 1008.31 1007.91 1007.45 1006.94 1006.36 1005.75 1005.08 1004.38 1003.65 1002.88 1002.08
1008.89 1009.14 1009.40 1009.65 1009.90 1010.14 1010.35 1010.53 1010.68 1010.81 1010.91 1010.98 1011.02 1011.03 1011.01 1010.96 1010.88 1010.76 1010.62 1010.46 1010.28 1010.10 1009.91 1009.73 1009.55 1009.39 1009.22 1009.05 1008.86 1008.64 1008.38 1008.07 1007.69 1007.25 1006.73 1006.15 1005.52 1004.82 1004.09 1003.32 1002.52 1001.69 1000.84
1009.08 1009.34 1009.60 1009.85 1010.08 1010.28 1010.44 1010.56 1010.65 1010.71 1010.74 1010.74 1010.72 1010.68 1010.61 1010.53 1010.42 1010.30 1010.15 1009.99 1009.83 1009.65 1009.48 1009.30 1009.14 1008.97 1008.80 1008.61 1008.40 1008.15 1007.85 1007.49 1007.06 1006.56 1005.98 1005.33 1004.61 1003.84 1003.03 1002.19 1001.32 1000.43 999.54
1009.23 1009.50 1009.76 1009.99 1010.19 1010.34 1010.45 1010.52 1010.55 1010.54 1010.50 1010.44 1010.37 1010.29 1010.19 1010.09 1009.98 1009.85 1009.72 1009.58 1009.43 1009.27 1009.11 1008.95 1008.78 1008.61 1008.42 1008.21 1007.96 1007.67 1007.32 1006.91 1006.41 1005.84 1005.19 1004.46 1003.67 1002.82 1001.93 1001.01 1000.07 999.13 998.20
1009.32 1009.60 1009.84 1010.05 1010.22 1010.33 1010.39 1010.40 1010.37 1010.31 1010.22 1010.12 1010.02 1009.91 1009.81 1009.70 1009.60 1009.49 1009.37 1009.25 1009.12 1008.98 1008.82 1008.66 1008.48 1008.29 1008.07 1007.81 1007.52 1007.17 1006.77 1006.28 1005.72 1005.08 1004.35 1003.55 1002.67 1001.75 1000.78 999.79 998.79 997.79 996.81
Thickness
5501 5502 5502 5502 5502 5502 5503 5503 5504 5504 5504 5505 5505 5506 5506 5507 5507 5508 5508 5507 5507 5506 5505 5504 5502 5501 5499 5498 5497 5497 5496 5496 5497 5501 5499 5498 5496 5495 5494 5494 5494 5494 5495
5491 5491 5491 5491 5492 5492 5493 5492 5492 5493 5493 5493 5493 5494 5495 5495 5495 5496 5496 5495 5495 5494 5493 5492 5491 5489 5488 5487 5486 5486 5485 5484 5484 5486 5486 5485 5484 5483 5483 5482 5482 5483 5483
5480 5481 5481 5481 5481 5482 5482 5481 5481 5481 5481 5481 5481 5482 5482 5482 5483 5484 5483 5483 5482 5482 5481 5481 5480 5478 5477 5476 5474 5474 5473 5472 5472 5472 5473 5472 5471 5470 5470 5470 5470 5471 5471
5470 5471 5470 5470 5470 5470 5469 5469 5469 5469 5469 5469 5469 5469 5469 5469 5470 5470 5470 5470 5470 5470 5469 5468 5468 5467 5466 5464 5463 5462 5461 5460 5459 5459 5460 5460 5459 5458 5457 5457 5458 5459 5460
5462 5461 5460 5459 5458 5458 5458 5458 5458 5457 5457 5457 5457 5457 5456 5457 5457 5457 5457 5457 5458 5458 5457 5456 5456 5454 5453 5451 5450 5450 5448 5448 5448 5447 5448 5447 5446 5445 5444 5444 5445 5446 5447
5452 5452 5450 5449 5448 5447 5447 5446 5446 5445 5445 5444 5444 5444 5444 5444 5444 5444 5444 5445 5445 5446 5445 5445 5444 5442 5441 5439 5438 5437 5435 5435 5436 5435 5436 5436 5436 5433 5432 5431 5431 5433 5435
5444 5442 5441 5440 5438 5437 5436 5435 5435 5434 5434 5434 5433 5432 5432 5432 5431 5431 5431 5432 5434 5434 5433 5433 5433 5432 5429 5428 5427 5425 5424 5422 5422 5422 5423 5424 5423 5422 5420 5419 5419 5419 5421
5435 5434 5433 5431 5429 5427 5426 5425 5425 5424 5423 5423 5422 5421 5421 5420 5420 5420 5420 5421 5422 5422 5422 5421 5421 5421 5419 5417 5416 5415 5414 5413 5411 5410 5410 5411 5410 5408 5407 5406 5406 5406 5407
5427 5426 5424 5422 5420 5418 5416 5415 5414 5413 5412 5411 5410 5410 5410 5409 5408 5409 5409 5410 5411 5411 5411 5411 5410 5409 5408 5406 5405 5404 5403 5402 5400 5397 5396 5397 5396 5395 5394 5392 5393 5393 5396
5419 5416 5414 5412 5411 5409 5407 5405 5403 5402 5401 5400 5399 5399 5399 5399 5398 5398 5398 5399 5401 5401 5401 5400 5398 5397 5396 5394 5394 5393 5392 5392 5389 5388 5386 5385 5385 5385 5383 5382 5381 5382 5383
5410 5407 5406 5403 5401 5399 5397 5395 5393 5392 5391 5390 5389 5389 5388 5388 5388 5388 5387 5388 5389 5390 5390 5389 5388 5386 5385 5384 5382 5382 5382 5380 5378 5377 5376 5375 5374 5373 5372 5371 5370 5370 5371
5401 5399 5397 5395 5392 5390 5387 5385 5383 5382 5381 5380 5379 5378 5378 5378 5377 5378 5377 5378 5378 5378 5378 5378 5378 5376 5374 5373 5372 5371 5369 5368 5367 5366 5365 5365 5363 5362 5361 5360 5359 5359 5359
5393 5391 5389 5386 5384 5381 5379 5377 5375 5373 5371 5371 5369 5369 5368 5367 5367 5367 5367 5367 5367 5367 5367 5367 5366 5365 5364 5363 5361 5359 5358 5356 5356 5355 5355 5354 5352 5351 5349 5349 5349 5348 5349
5384 5382 5380 5378 5375 5372 5369 5367 5366 5364 5363 5361 5359 5358 5358 5357 5357 5357 5357 5357 5357 5357 5356 5355 5354 5353 5352 5351 5350 5348 5347 5346 5345 5344 5344 5342 5341 5340 5339 5339 5339 5339 5339
5376 5373 5371 5369 5366 5364 5361 5359 5357 5355 5353 5351 5350 5348 5347 5348 5348 5347 5346 5347 5347 5346 5344 5343 5343 5342 5341 5341 5339 5338 5336 5335 5334 5334 5333 5332 5331 5330 5329 5329 5329 5329 5329
5368 5365 5362 5360 5357 5354 5353 5350 5347 5344 5342 5340 5339 5337 5337 5336 5337 5336 5336 5336 5335 5334 5333 5333 5332 5331 5330 5329 5328 5327 5326 5326 5325 5324 5323 5322 5321 5320 5320 5319 5319 5320 5321
5360 5358 5355 5352 5349 5346 5344 5342 5340 5337 5333 5331 5329 5328 5326 5326 5326 5326 5326 5325 5324 5323 5322 5322 5321 5321 5319 5318 5318 5317 5317 5316 5315 5314 5313 5312 5311 5311 5310 5311 5311 5311 5312
5352 5350 5347 5344 5341 5339 5336 5334 5331 5329 5327 5325 5321 5319 5317 5316 5316 5316 5315 5314 5314 5313 5312 5312 5311 5310 5309 5308 5308 5307 5307 5306 5305 5304 5304 5303 5302 5302 5302 5302 5303 5303 5303
5346 5343 5340 5337 5333 5331 5328 5325 5322 5320 5318 5316 5314 5312 5309 5308 5307 5306 5305 5305 5305 5304 5303 5302 5301 5300 5300 5299 5299 5298 5298 5297 5296 5295 5295 5294 5294 5294 5294 5294 5295 5295 5295
5339 5336 5332 5329 5326 5323 5320 5317 5314 5312 5309 5307 5306 5304 5302 5300 5299 5298 5297 5296 5296 5295 5295 5294 5293 5292 5291 5291 5291 5290 5290 5289 5288 5288 5287 5286 5286 5286 5287 5287 5287 5288 5288
5334 5330 5326 5323 5319 5316 5313 5310 5307 5304 5301 5299 5297 5295 5293 5292 5291 5291 5289 5289 5288 5288 5287 5286 5285 5284 5283 5283 5283 5282 5282 5282 5281 5280 5280 5279 5279 5279 5279 5280 5281 5281 5281
5328 5324 5320 5317 5313 5310 5306 5303 5299 5296 5294 5291 5290 5287 5285 5284 5284 5283 5282 5281 5280 5279 5278 5278 5278 5277 5276 5276 5276 5275 5275 5275 5274 5274 5273 5273 5273 5273 5273 5274 5274 5275 5275
5322 5318 5314 5310 5307 5304 5300 5296 5293 5290 5287 5285 5283 5281 5279 5278 5277 5276 5274 5273 5272 5272 5271 5270 5270 5270 5270 5269 5268 5268 5269 5269 5268 5268 5267 5268 5268 5268 5269 5269 5269 5269 5270
5316 5312 5308 5305 5301 5298 5295 5291 5288 5285 5282 5280 5278 5276 5274 5271 5270 5269 5267 5266 5265 5265 5264 5264 5264 5264 5264 5263 5263 5263 5263 5263 5263 5262 5263 5263 5264 5264 5264 5264 5265 5265 5265
5310 5307 5303 5299 5296 5292 5289 5286 5283 5280 5277 5274 5272 5270 5267 5265 5264 5262 5261 5260 5259 5259 5258 5258 5258 5258 5259 5259 5259 5259 5259 5259 5259 5259 5259 5260 5260 5260 5260 5261 5261 5261 5261
5304 5300 5297 5293 5290 5286 5283 5281 5278 5274 5271 5268 5266 5264 5261 5260 5258 5256 5255 5254 5253 5253 5253 5253 5254 5254 5254 5254 5254 5255 5255 5256 5256 5256 5256 5257 5257 5257 5257 5258 5257 5257 5257